Location: Newark
(46.7000°N, 60.6000°W)
Time: 04:06:19
(UTC+00:00)

A-11 Canister half - Pass Details

Date: 28 October 2020
Orbit: 1525 x 1683 km, 47.3° (Epoch: 23 November)

Event Time Altitude Azimuth Distance (km) Brightness Sun altitude
Rises 18:08:57 0° 224° (SW) 4,798 13.1 21.9°
Reaches altitude 10° 18:12:10 10° 219° (SW) 3,793 13.3 21.5°
Maximum altitude 18:21:21 53° 146° (SSE) 1,849 9.9 20.5°
Drops below altitude 10° 18:30:18 10° 73° (ENE) 3,708 10.6 19.5°
Sets 18:33:24 0° 69° (ENE) 4,684 11.0 19.1°
